Location: *
(38.4303°S, 157.0822°W)
Time: 13:49:17
(UTC+00:00)

USA 238 DEB - Pass Details

Date: 21 May 2024
Orbit: 912 x 1299 km, 63.4° (Epoch: 29 April)

Event Time Altitude Azimuth Distance (km) Brightness Sun altitude
Exits shadow 16:24:42 15° 236° (SW) 2,425 5.0 -12.6°
Maximum altitude 16:29:13 33° 292° (WNW) 1,555 4.2 -11.7°
Drops below altitude 10° 16:34:33 10° 354° (N) 2,618 5.9 -10.7°
Sets 16:37:15 0° 3° (N) 3,537 6.7 -10.2°
